Hourly Weather Haikou

Today, 27 September, Sunday

Time Temperature Precipitation Wind Pressure Humidity
00:00 +29°C° 0 mm 3 mps 756 mmHg 86%
01:00 +29°C° 0 mm 3 mps 756 mmHg 86%
02:00 +29°C° 0 mm 3 mps 755 mmHg 87%
03:00 +29°C° 0 mm 3 mps 755 mmHg 87%
04:00 +29°C° 0 mm 3 mps 755 mmHg 88%
05:00 +29°C° 0 mm 3 mps 755 mmHg 86%
06:00 +29°C° 0 mm 3 mps 756 mmHg 85%
07:00 +30°C° 0 mm 2 mps 757 mmHg 84%
08:00 +31°C° 0.6 mm 2 mps 757 mmHg 79%
09:00 +33°C° 0.6 mm 3 mps 757 mmHg 74%
10:00 +34°C° 0.6 mm 3 mps 757 mmHg 68%
11:00 +34°C° 0.3 mm 4 mps 756 mmHg 69%
12:00 +34°C° 0.3 mm 4 mps 756 mmHg 69%
13:00 +34°C° 0 mm 4 mps 755 mmHg 68%
14:00 +34°C° 0.4 mm 4 mps 755 mmHg 71%
15:00 +34°C° 0.4 mm 5 mps 755 mmHg 73%
16:00 +33°C° 0.4 mm 5 mps 754 mmHg 76%
17:00 +32°C° 0.1 mm 5 mps 755 mmHg 78%
18:00 +32°C° 0.1 mm 5 mps 755 mmHg 81%
19:00 +30°C° 0 mm 4 mps 756 mmHg 84%
20:00 +30°C° 0.2 mm 4 mps 756 mmHg 84%
21:00 +30°C° 0.2 mm 4 mps 756 mmHg 84%
22:00 +30°C° 0.2 mm 3 mps 757 mmHg 84%
23:00 +30°C° 0.1 mm 3 mps 756 mmHg 84%

Tomorrow, 28 September, Monday

Time Temperature Precipitation Wind Pressure Humidity
00:00 +29°C° 0.1 mm 2 mps 756 mmHg 84%
01:00 +29°C° 0.1 mm 2 mps 756 mmHg 85%
02:00 +29°C° 0 mm 2 mps 755 mmHg 85%
03:00 +29°C° 0 mm 1 mps 755 mmHg 85%
04:00 +29°C° 0 mm 1 mps 755 mmHg 86%
05:00 +29°C° 0.4 mm 1 mps 756 mmHg 85%
06:00 +30°C° 0.4 mm 2 mps 756 mmHg 83%
07:00 +30°C° 0.4 mm 2 mps 757 mmHg 82%
08:00 +31°C° 0.8 mm 3 mps 757 mmHg 79%
09:00 +31°C° 0.8 mm 3 mps 757 mmHg 75%
10:00 +33°C° 0.8 mm 4 mps 757 mmHg 72%
11:00 +33°C° 1.3 mm 4 mps 757 mmHg 75%
12:00 +32°C° 1.3 mm 5 mps 756 mmHg 77%
13:00 +32°C° 1.3 mm 6 mps 756 mmHg 80%
14:00 +30°C° 0.7 mm 6 mps 756 mmHg 81%
15:00 +30°C° 0.7 mm 5 mps 755 mmHg 82%
16:00 +30°C° 0.7 mm 5 mps 755 mmHg 82%
17:00 +30°C° 0.4 mm 4 mps 755 mmHg 83%
18:00 +29°C° 0.4 mm 4 mps 755 mmHg 83%
19:00 +29°C° 0.4 mm 3 mps 755 mmHg 84%
20:00 +29°C° 0 mm 3 mps 756 mmHg 85%
21:00 +29°C° 0 mm 3 mps 756 mmHg 86%
22:00 +29°C° 0 mm 3 mps 757 mmHg 87%
23:00 +29°C° 0 mm 3 mps 757 mmHg 86%

Day after tomorrow, 29 September, Tuesday

Time Temperature Precipitation Wind Pressure Humidity
00:00 +29°C° 0 mm 3 mps 756 mmHg 86%
01:00 +29°C° 0 mm 3 mps 756 mmHg 85%
02:00 +29°C° 0 mm 3 mps 756 mmHg 86%
03:00 +29°C° 0 mm 3 mps 756 mmHg 86%
04:00 +29°C° 0 mm 3 mps 756 mmHg 87%
05:00 +29°C° 0.4 mm 3 mps 756 mmHg 87%
06:00 +29°C° 0.4 mm 3 mps 756 mmHg 87%
07:00 +29°C° 0.4 mm 3 mps 756 mmHg 87%
08:00 +29°C° 0.1 mm 2 mps 756 mmHg 85%
09:00 +30°C° 0.1 mm 2 mps 756 mmHg 83%
10:00 +30°C° 0.1 mm 2 mps 756 mmHg 80%
11:00 +31°C° 0.2 mm 2 mps 756 mmHg 76%
12:00 +32°C° 0.2 mm 1 mps 755 mmHg 72%
13:00 +33°C° 0.2 mm 1 mps 755 mmHg 68%
14:00 +32°C° 0.1 mm 2 mps 754 mmHg 72%
15:00 +33°C° 0.1 mm 3 mps 754 mmHg 75%
16:00 +31°C° 0.1 mm 3 mps 753 mmHg 79%
17:00 +31°C° 0 mm 3 mps 754 mmHg 81%
18:00 +30°C° 0 mm 3 mps 754 mmHg 82%
19:00 +30°C° 0 mm 3 mps 754 mmHg 84%
20:00 +29°C° 0 mm 3 mps 755 mmHg 85%
21:00 +29°C° 0 mm 3 mps 755 mmHg 85%
22:00 +29°C° 0 mm 3 mps 756 mmHg 86%
23:00 +29°C° 0.1 mm 3 mps 755 mmHg 86%

30 September, Wednesday

Time Temperature Precipitation Wind Pressure Humidity
00:00 +29°C° 0.1 mm 3 mps 755 mmHg 87%
01:00 +29°C° 0.1 mm 2 mps 755 mmHg 87%
02:00 +29°C° 0.7 mm 3 mps 755 mmHg 87%
03:00 +29°C° 0.7 mm 3 mps 754 mmHg 87%
04:00 +29°C° 0.7 mm 3 mps 754 mmHg 87%
05:00 +29°C° 0 mm 3 mps 755 mmHg 87%
06:00 +29°C° 0 mm 3 mps 755 mmHg 86%
07:00 +29°C° 0 mm 3 mps 755 mmHg 85%
08:00 +30°C° 0 mm 3 mps 755 mmHg 78%
09:00 +32°C° 0 mm 2 mps 756 mmHg 71%
10:00 +34°C° 0 mm 2 mps 756 mmHg 63%
11:00 +35°C° 0 mm 2 mps 755 mmHg 62%
12:00 +35°C° 0 mm 2 mps 755 mmHg 60%
13:00 +35°C° 0 mm 3 mps 754 mmHg 59%
14:00 +35°C° 0.1 mm 3 mps 754 mmHg 63%
15:00 +34°C° 0.1 mm 4 mps 753 mmHg 68%
16:00 +34°C° 0.1 mm 5 mps 753 mmHg 72%
17:00 +32°C° 0 mm 5 mps 753 mmHg 74%
18:00 +30°C° 0 mm 5 mps 754 mmHg 76%
19:00 +29°C° 0 mm 5 mps 754 mmHg 78%
20:00 +29°C° 0 mm 4 mps 755 mmHg 79%
21:00 +29°C° 0 mm 4 mps 755 mmHg 81%
22:00 +29°C° 0 mm 4 mps 755 mmHg 82%
23:00 +29°C° 0 mm 4 mps 755 mmHg 84%

1 October, Thursday

Time Temperature Precipitation Wind Pressure Humidity
00:00 +29°C° 0 mm 4 mps 755 mmHg 85%
01:00 +29°C° 0 mm 3 mps 754 mmHg 87%
02:00 +29°C° 0 mm 3 mps 754 mmHg 87%
03:00 +29°C° 0 mm 3 mps 754 mmHg 87%
04:00 +28°C° 0 mm 2 mps 754 mmHg 87%
05:00 +29°C° 0 mm 2 mps 755 mmHg 85%
06:00 +29°C° 0 mm 2 mps 755 mmHg 84%
07:00 +30°C° 0 mm 2 mps 755 mmHg 82%
08:00 +31°C° 0 mm 3 mps 756 mmHg 77%
09:00 +33°C° 0 mm 3 mps 756 mmHg 72%
10:00 +34°C° 0 mm 3 mps 756 mmHg 67%
11:00 +34°C° 0.4 mm 4 mps 755 mmHg 67%
12:00 +34°C° 0.4 mm 4 mps 755 mmHg 68%
13:00 +34°C° 0.4 mm 5 mps 754 mmHg 68%
14:00 +34°C° 0.3 mm 5 mps 754 mmHg 70%
15:00 +33°C° 0.3 mm 6 mps 754 mmHg 73%
16:00 +33°C° 0.3 mm 6 mps 753 mmHg 75%
17:00 +32°C° 0 mm 6 mps 754 mmHg 77%
18:00 +30°C° 0 mm 6 mps 754 mmHg 80%
19:00 +30°C° 0 mm 6 mps 755 mmHg 82%
20:00 +29°C° 0 mm 6 mps 755 mmHg 83%
21:00 +29°C° 0 mm 5 mps 756 mmHg 83%
22:00 +29°C° 0 mm 5 mps 756 mmHg 83%
23:00 +29°C° 0.1 mm 5 mps 756 mmHg 84%

2 October, Friday

Time Temperature Precipitation Wind Pressure Humidity
00:00 +29°C° 0.1 mm 4 mps 755 mmHg 85%
01:00 +29°C° 0.1 mm 4 mps 755 mmHg 86%
02:00 +29°C° 0.2 mm 3 mps 755 mmHg 86%
03:00 +29°C° 0.2 mm 3 mps 755 mmHg 86%
04:00 +29°C° 0.2 mm 3 mps 755 mmHg 86%
05:00 +29°C° 0.7 mm 3 mps 755 mmHg 85%
06:00 +29°C° 0.7 mm 4 mps 756 mmHg 84%
07:00 +30°C° 0.7 mm 4 mps 756 mmHg 83%
08:00 +29°C° 1 mm 4 mps 756 mmHg 84%
09:00 +29°C° 1 mm 4 mps 757 mmHg 85%
10:00 +29°C° 1 mm 4 mps 757 mmHg 85%
11:00 +29°C° 0.4 mm 4 mps 756 mmHg 83%
12:00 +30°C° 0.4 mm 4 mps 756 mmHg 80%
13:00 +30°C° 0.4 mm 4 mps 755 mmHg 78%
14:00 +30°C° 0.2 mm 4 mps 755 mmHg 80%
15:00 +29°C° 0.2 mm 4 mps 755 mmHg 82%
16:00 +28°C° 0.2 mm 4 mps 755 mmHg 85%
17:00 +28°C° 0 mm 4 mps 755 mmHg 85%
18:00 +28°C° 0 mm 5 mps 755 mmHg 86%
19:00 +28°C° 0 mm 5 mps 755 mmHg 87%
20:00 +28°C° 0 mm 5 mps 756 mmHg 88%
21:00 +28°C° 0 mm 4 mps 756 mmHg 88%
22:00 +28°C° 0 mm 4 mps 757 mmHg 89%
23:00 +28°C° 0.2 mm 4 mps 756 mmHg 89%
Show more